Location: Unspecified
(0.0000°N, 0.0000°E)
Time: 02:46:54
(UTC+00:00)

ISS - Pass Details

Date: 11 March 2026
Orbit: 417 x 426 km, 51.6° (Epoch: 16 March)

Event Time Altitude Azimuth Distance (km) Brightness Sun altitude
Exits shadow 05:19:29 19° 300° (WNW) 1,059 -2.3 -12.6°
Maximum altitude 05:21:33 44° 235° (SW) 583 -3.4 -12.1°
Drops below altitude 10° 05:24:45 10° 161° (SSE) 1,488 -0.7 -11.3°
Sets 05:26:55 0° 154° (SSE) 2,354 0.5 -10.8°
